Weather History for Crossville, TN

Change the Weather History Date:

Sunday, May 12, 2013

  Actual Average Record
Temperature  
Mean Temperature 49 °F 63 °F  
Max Temperature 59 °F 73 °F 86 °F (1956)
Min Temperature 39 °F 52 °F 35 °F (1954)
Degree Days  
Heating Degree Days 16    
Month to date heating degree days 84  
Since 1 July heating degree days 4300  
Cooling Degree Days 0    
Month to date cooling degree days 0  
Year to date cooling degree days 21  
Growing Degree Days 2 (Base 50)    
Moisture  
Dew Point 34 °F    
Average Humidity 62    
Maximum Humidity 96    
Minimum Humidity 28    
Precipitation  
Precipitation 0.00 in 0.18 in 2.48 in (1971)
Month to date precipitation 3.43 2.11  
Year to date precipitation 25.92 21.13  
Sea Level Pressure  
Sea Level Pressure 30.09 in    
Wind  
Wind Speed 8 mph (NW)    
Max Wind Speed 16 mph    
Max Gust Speed 22 mph    
Visibility 10 miles    
Events      
T = Trace of Precipitation, MM = Missing Value Source: NWS Daily Summary

Daily Weather History Graph

Daily Weather History Graph

Search for Another Location

Airport:

Trip Planner

Search our weather history database for the weather conditions in past years. The results will help you decide how hot, cold, wet, or windy it might be!

Date:

Astronomy

May. 12, 2013 Rise Set
Actual Time 5:36 AM CDT 7:36 PM CDT
Civil Twilight 5:08 AM CDT 8:05 PM CDT
Nautical Twilight 4:34 AM CDT 8:39 PM CDT
Astronomical Twilight 3:57 AM CDT 9:16 PM CDT
Moon 7:32 AM CDT (5/12) 10:02 PM CDT (5/12)
Length of Visible Light 14h 56m
Length of Day
13h 59m
Waxing Crescent, 7% of the Moon is Illuminated
May 12
Waxing Crescent
May 17
First Quarter
May 24
Full
May 31
Last Quarter
Jun 8
New

Hourly Weather History & Observations

Time (CDT) Temp. Windchill Dew Point Humidity Pressure Visibility Wind Dir Wind Speed Gust Speed Precip Events Conditions
12:50 AM 51.8 °F - 50.0 °F 94% 30.03 in 10.0 mi West 3.5 mph - N/A   Overcast
12:53 AM 52.0 °F - 50.0 °F 93% 30.01 in 10.0 mi West 3.5 mph - N/A   Overcast
1:30 AM 53.6 °F - 48.2 °F 82% 30.04 in 10.0 mi NNW 12.7 mph 17.3 mph N/A   Overcast
1:42 AM 53.6 °F - 46.4 °F 77% 30.04 in 10.0 mi North 12.7 mph 19.6 mph N/A   Overcast
1:53 AM 52.0 °F - 45.0 °F 77% 30.01 in 10.0 mi North 11.5 mph 19.6 mph N/A   Overcast
2:15 AM 51.8 °F - 41.0 °F 67% 30.04 in 10.0 mi NNW 9.2 mph - N/A   Scattered Clouds
2:53 AM 51.1 °F - 39.0 °F 63% 30.02 in 10.0 mi NNW 8.1 mph - N/A   Overcast
3:53 AM 48.9 °F - 35.1 °F 59% 30.04 in 10.0 mi NNW 10.4 mph - N/A   Mostly Cloudy
4:53 AM 46.0 °F 41.9 °F 34.0 °F 63% 30.04 in 10.0 mi NNW 8.1 mph - N/A   Clear
5:53 AM 44.1 °F 41.5 °F 34.0 °F 68% 30.06 in 10.0 mi NNW 4.6 mph - N/A   Clear
6:53 AM 46.0 °F 43.1 °F 33.1 °F 61% 30.08 in 10.0 mi NNW 5.8 mph - N/A   Clear
7:53 AM 46.9 °F - 30.0 °F 52% 30.10 in 10.0 mi Variable 6.9 mph - N/A   Clear
8:53 AM 50.0 °F - 28.9 °F 44% 30.11 in 10.0 mi NNE 11.5 mph - N/A   Clear
9:53 AM 52.0 °F - 28.9 °F 41% 30.12 in 10.0 mi North 11.5 mph - N/A   Clear
10:53 AM 52.0 °F - 28.0 °F 40% 30.13 in 10.0 mi NW 10.4 mph 20.7 mph N/A   Clear
11:53 AM 54.0 °F - 26.1 °F 34% 30.12 in 10.0 mi NW 11.5 mph 19.6 mph N/A   Clear
12:53 PM 55.9 °F - 24.1 °F 29% 30.11 in 10.0 mi NNW 6.9 mph 18.4 mph N/A   Clear
1:53 PM 57.0 °F - 27.0 °F 32% 30.11 in 10.0 mi NNW 12.7 mph 21.9 mph N/A   Clear
2:53 PM 57.0 °F - 26.1 °F 30% 30.09 in 10.0 mi WNW 8.1 mph 18.4 mph N/A   Clear
3:53 PM 59.0 °F - 26.1 °F 28% 30.09 in 10.0 mi NNW 15.0 mph 19.6 mph N/A   Clear
4:53 PM 57.9 °F - 28.0 °F 32% 30.10 in 10.0 mi WNW 5.8 mph - N/A   Clear
5:53 PM 57.0 °F - 27.0 °F 32% 30.11 in 10.0 mi NW 10.4 mph 16.1 mph N/A   Clear
6:53 PM 55.0 °F - 27.0 °F 34% 30.12 in 10.0 mi NW 8.1 mph - N/A   Clear
7:53 PM 51.1 °F - 28.9 °F 43% 30.12 in 10.0 mi WNW 4.6 mph - N/A   Clear
8:53 PM 48.0 °F - 30.9 °F 52% 30.14 in 10.0 mi WNW 3.5 mph - N/A   Clear
9:53 PM 46.0 °F - 32.0 °F 58% 30.15 in 10.0 mi Calm Calm - N/A   Clear
10:53 PM 45.0 °F - 32.0 °F 60% 30.16 in 10.0 mi Calm Calm - N/A   Clear
11:53 PM 44.1 °F 41.5 °F 32.0 °F 63% 30.17 in 10.0 mi NNW 4.6 mph - N/A   Clear